Flight Track Log - Related Links

Times and Time Zones

All times are in EDT time to prevent confusion due to time zone crossing. See the CTL18 flight status page for this flight to view local times or setup timezone preferences in your user account.

Time Position Orientation Groundspeed Altitude Reporting Facility
EDT Latitude Longitude Course Direction KTS MPH feet Rate Location/Type
Thu 10:04:56 PM 41.5478 -81.7178 334° Northwest 134 154 1,900  Level Cleveland Center
Thu 10:05:57 PM 41.5683 -81.7572 305° West 133 153 2,500 496 Climbing Cleveland Center
Thu 10:06:57 PM 41.5825 -81.8044 292° West 144 166 2,900 397 Climbing Cleveland Center
Thu 10:07:58 PM 41.6028 -81.8578 297° West 155 178 3,300 440 Climbing Cleveland Center
Thu 10:08:46 PM 41.6147 -81.8997 301° West 159 183 3,700 385 Climbing Cleveland Center
Thu 10:09:47 PM 41.6347 -81.9583 295° West 163 188 4,000 149 Climbing Cleveland Center
Thu 10:10:47 PM 41.6486 -82.0142 288° West 165 190 4,000 -50 Level Cleveland Center
Thu 10:11:48 PM 41.6689 -82.0731 295° West 161 185 3,900  Descending Cleveland Center
Thu 10:12:49 PM 41.6847 -82.1292 291° West 158 182 4,000  Climbing Cleveland Center
Thu 10:13:49 PM 41.6986 -82.1767 291° West 154 177 3,900  Descending Cleveland Center
Thu 10:14:56 PM 41.7208 -82.2356 297° West 155 178 4,000 50 Climbing Cleveland Center
Thu 10:15:50 PM 41.7347 -82.2833 291° West 153 176 4,000  Level Cleveland Center
Thu 10:16:51 PM 41.7506 -82.3367 292° West 155 178 4,000  Level Cleveland Center
Thu 10:17:52 PM 41.7683 -82.3928 293° West 160 184 4,000 47 Level Cleveland Center
Thu 10:18:58 PM 41.7925 -82.4519 299° West 157 181 4,100 47 Climbing Cleveland Center
Thu 10:19:59 PM 41.8083 -82.5053 292° West 155 178 4,100  Level Cleveland Center
Thu 10:20:53 PM 41.8242 -82.5503 295° West 155 178 4,100 -52 Level Cleveland Center
Thu 10:21:54 PM 41.8381 -82.6011 290° West 146 168 4,000 -49 Descending Cleveland Center
Thu 10:22:55 PM 41.8706 -82.6411 318° Northwest 172 198 4,000 50 Level Cleveland Center
Thu 10:23:55 PM 41.9097 -82.6731 329° Northwest 160 184 4,100 50 Climbing Cleveland Center
Thu 10:24:56 PM 41.9506 -82.7078 328° Northwest 164 189 4,100  Level Cleveland Center
Thu 10:26:09 PM 41.9958 -82.7428 330° Northwest 160 184 4,100 -47 Level Cleveland Center
Thu 10:27:03 PM 42.0286 -82.7719 327° Northwest 157 181 4,000  Descending Cleveland Center
Thu 10:28:04 PM 42.0656 -82.8067 325° Northwest 154 177 4,100  Climbing Cleveland Center
Thu 10:29:05 PM 42.0983 -82.8386 324° Northwest 151 174 4,000  Descending Cleveland Center
Thu 10:30:05 PM 42.1350 -82.8736 325° Northwest 152 175 4,100  Climbing Cleveland Center
Thu 10:30:48 PM 42.1619 -82.8914 334° Northwest 151 174 4,000 -52 Descending Cleveland Center
Thu 10:32:01 PM 42.2008 -82.9292 324° Northwest 144 166 4,000  Level Cleveland Center
Thu 10:33:07 PM 42.2375 -82.9614 327° Northwest 140 161 4,000  Level Cleveland Center
Thu 10:34:14 PM 42.2742 -82.9994 322° Northwest 144 166 4,000 49 Level Cleveland Center
Thu 10:35:09 PM 42.3031 -83.0228 329° Northwest 147 169 4,100 50 Climbing Cleveland Center
Thu 10:36:15 PM 42.3397 -83.0636 321° Northwest 149 171 4,100 -142 Level Cleveland Center
Thu 10:37:16 PM 42.3744 -83.0986 323° Northwest 163 188 3,800 -344 Descending Cleveland Center
Thu 10:38:17 PM 42.4131 -83.1339 326° Northwest 171 197 3,400 -350 Descending Cleveland Center
Thu 10:38:59 PM 42.4397 -83.1631 321° Northwest 165 190 3,200 -186 Descending Cleveland Center
Thu 10:39:54 PM 42.4700 -83.1983 319° Northwest 161 185 3,100 -52 Descending Cleveland Center
Thu 10:40:55 PM 42.5067 -83.2364 323° Northwest 159 183 3,100  Level Cleveland Center
Thu 10:42:01 PM 42.5414 -83.2744 321° Northwest 156 180 3,100 -259 Level Cleveland Center
Thu 10:43:14 PM 42.5925 -83.3161 329° Northwest 174 200 2,500 -493 Descending Cleveland Center
Thu 10:44:15 PM 42.6314 -83.3461 330° Northwest 167 192 2,000 -422 Descending Cleveland Center
Thu 10:45:22 PM 42.6636 -83.3869 317° Northwest 125 144 1,600 -358 Descending Cleveland Center
Thu 10:47:00 PM 42.6500 -83.4167 304° West  Level FlightAware Approximate
Thu 10:54:00 PM 42.6656 -83.4205 304° West  Level Estimated
Thu 10:55:00 PM 42.6656 -83.4205 304° West  Level Estimated

Login

Don't have an account? Register now (free) for customized features, flight alerts, and more!